User: anonymous   Login
Location: Unspecified
(0.0000°N, 0.0000°E)
Time: 04:25:00
(UTC+02:00)
Language:

Cosmos 2251 - Orbit

View from above orbital plane
View from above orbital plane
View from above satellite
View from above satellite

Ground track
Ground track

The orbit data is extracted from the following two-line orbital elements,

1 22675U 93036A   17085.95034258 +.00000007 +00000-0 +12048-4 0  9996
2 22675 074.0415 006.1862 0024514 147.4671 212.7996 14.32495135241969
Epoch (UTC): 26 March 2017 22:48:29
Eccentricity: 0.0024514
inclination: 74.0415°
perigee height: 766 km
apogee height: 801 km
right ascension of ascending node: 6.1862°
argument of perigee: 147.4671°
revolutions per day: 14.32495135
mean anomaly at epoch: 212.7996°
orbit number at epoch: 24196

The dashed part of the orbit path shows where the satellite is in the earth's shadow,  

DLR